Tracking 28052 objects as of 22-Sep-2023
HD Live streaming from Space Station
objects crossing your sky now

BREEZE-M DEB (TANK)

Track BREEZE-M DEB (TANK) now!
10-day predictions


NORAD ID: 40366
Int'l Code: 2014-089C
Perigee: 313.4 km
Apogee: 14,815.5 km
Inclination: 49.5 °
Period: 272.9 minutes
Semi major axis: 13935 km
RCS: Unknown
Launch date: December 27, 2014
Source: Commonwealth of Independent States (former USSR) (CIS)
Launch site: TYURATAM MISSILE AND SPACE COMPLEX (TTMTR)

Note: This is SATELLITE DEBRIS
Your satellite tracking list
Your tracking list is empty




NASA's NSSDC Master Catalog

Two Line Element Set (TLE):
1 40366U 14089C   23264.54733298  .00003431  00000-0  64210-3 0  9996
2 40366  49.5119 114.0963 5203303 300.5324  18.2721  5.27742012166449
Source of the keplerian elements: AFSPC